This demonstration page uses our WeatherBlox Daily Observations layout. Learn more.

Left ArrowRight Arrow

36.17497, -115.13722

Hourly Observations for April 9, 2021

Temp ( °F °C ) Dew Point ( °F °C ) Humidity (%) Winds ( mph kmh ) Pressure ( in mb ) Visibility ( mi km ) Precip ( " mm )
12:53 am 00:53 Clear 71 21.7 9 -12.8 9 9 NW 13 20 29.83 1010 10 16.0934 N/A
1:53 am 01:53 Clear 70 21.1 10 -12.2 10 10 NNW 15 24 29.83 1010 10 16.0934 N/A
2:53 am 02:53 Clear 70 21.1 10 -12.2 10 10 NNW 14 22 29.84 1011 10 16.0934 N/A
3:53 am 03:53 Clear 65 18.3 11 -11.7 12 12 NNW 12 19 29.87 1011 10 16.0934 N/A
4:53 am 04:53 Clear 68 20 11 -11.7 11 11 NNW 15 24 29.88 1012 10 16.0934 N/A
5:53 am 05:53 Clear 67 19.4 12 -11.1 12 12 N 16 26 29.9 1013 10 16.0934 N/A
6:53 am 06:53 Sunny 65 18.3 13 -10.6 13 13 N 10 17 29.94 1014 10 16.0934 N/A
7:53 am 07:53 Sunny 68 20 15 -9.4 13 13 N 9 15 29.97 1015 10 16.0934 N/A
8:53 am 08:53 Sunny 72 22.2 14 -10 11 11 NNW 8 13 29.98 1015 10 16.0934 N/A
9:53 am 09:53 Sunny 73 22.8 14 -10 10 10 ESE 7 11 29.99 1016 10 16.0934 N/A
10:53 am 10:53 Sunny 76 24.4 13 -10.6 9 9 ENE 8 13 29.98 1015 10 16.0934 N/A
11:53 am 11:53 Sunny 78 25.6 11 -11.7 8 8 E 6 9 29.98 1015 10 16.0934 N/A
12:53 pm 12:53 Sunny 78 25.6 9 -12.8 7 7 VRB 3 6 29.96 1014 10 16.0934 N/A
1:53 pm 13:53 Sunny 80 26.7 7 -13.9 6 6 VRB 3 6 29.93 1014 10 16.0934 N/A
2:53 pm 14:53 Sunny 81 27.2 7 -13.9 6 6 N N/A 29.9 1012 10 16.0934 N/A
3:53 pm 15:53 Sunny 82 27.8 8 -13.3 6 6 undefined N/A 29.88 1012 10 16.0934 N/A
4:53 pm 16:53 Sunny 82 27.8 8 -13.3 6 6 SSE 5 7 29.85 1011 10 16.0934 N/A
5:53 pm 17:53 Sunny 83 28.3 9 -12.8 6 6 NE 3 6 29.84 1010 10 16.0934 N/A
6:53 pm 18:53 Sunny 81 27.2 9 -12.8 6 6 N N/A 29.83 1010 10 16.0934 N/A
7:53 pm 19:53 Clear 79 26.1 8 -13.3 6 6 N N/A 29.83 1010 10 16.0934 N/A
8:53 pm 20:53 Clear 76 24.4 13 -10.6 9 9 W 3 6 29.84 1010 10 16.0934 N/A
9:53 pm 21:53 Clear 72 22.2 18 -7.8 13 13 WNW 7 11 29.85 1011 10 16.0934 N/A
10:53 pm 22:53 Clear 68 20 17 -8.3 14 14 WNW 8 13 29.84 1011 10 16.0934 N/A
11:53 pm 23:53 Clear 66 18.9 18 -7.8 16 16 WNW 6 9 29.84 1011 10 16.0934 N/A

Powered by AerisWeather